Location: Boiro
(42.6475°N, 8.8834°W)
Time: 07:17:11
(UTC+01:00)

BEESAT 2 - Visible Passes

Search period start: 27 January 2022 00:00
Search period end: 06 February 2022 00:00
Orbit: 498 x 513 km, 64.9° (Epoch: 26 January)

Date Brightness Start Highest point End Pass type
(mag) Time Alt. Az. Time Alt. Az. Time Alt. Az.
27 Jan ? 07:02:56 10° SE 07:04:09 11° ESE 07:05:21 10° E visible
28 Jan ? 06:44:21 10° ESE 06:45:09 11° ESE 06:45:57 10° E visible
28 Jan ? 08:18:08 10° SW 08:21:59 68° NW 08:25:53 10° NNE visible
29 Jan ? 07:59:05 10° SW 08:02:57 72° NW 08:06:51 10° NNE visible
30 Jan ? 07:40:02 10° SW 07:43:54 77° WNW 07:47:48 10° NNE visible
31 Jan ? 07:21:21 12° SW 07:24:51 81° NW 07:28:45 10° NNE visible
01 Feb ? 07:04:23 38° SW 07:05:46 86° WNW 07:09:41 10° NNE visible
02 Feb ? 06:46:56 78° NE 06:46:56 78° NE 06:50:36 10° NNE visible
03 Feb ? 06:29:10 35° NE 06:29:10 35° NE 06:31:31 10° NE visible
03 Feb ? 08:03:59 11° WNW 08:05:34 13° NW 08:07:26 10° N visible
04 Feb ? 06:11:12 19° NE 06:11:12 19° NE 06:12:25 10° NE visible
04 Feb ? 07:45:59 13° NW 07:46:27 13° NW 07:48:27 10° N visible
05 Feb ? 05:53:03 12° NE 05:53:03 12° NE 05:53:19 10° NE visible
05 Feb ? 07:27:51 14° NNW 07:27:51 14° NNW 07:29:26 10° N visible
